Stations météo

réclame
Mon MeteoGroup
Leutkirch-Herlazhofen, Allemagne (10945): Température de l'air & dewpoint: 19.03.2019 11:00:00 - 25.03.2019 11:00:00 (CET)Leutkirch-Herlazhofen, Allemagne (10945): Température de l'air 5cm & Température de l'air -5cm: 19.03.2019 11:00:00 - 25.03.2019 11:00:00 (CET)Leutkirch-Herlazhofen, Allemagne (10945): Température de l'air -20cm & Température de l'air -100cm: 19.03.2019 11:00:00 - 25.03.2019 11:00:00 (CET)Leutkirch-Herlazhofen, Allemagne (10945): Vitesse du vent & gusts: 19.03.2019 11:00:00 - 25.03.2019 11:00:00 (CET)Leutkirch-Herlazhofen, Allemagne (10945): Direction du vent: 19.03.2019 11:00:00 - 25.03.2019 11:00:00 (CET)Leutkirch-Herlazhofen, Allemagne (10945): reduced air pressure: 19.03.2019 11:00:00 - 25.03.2019 11:00:00 (CET)Leutkirch-Herlazhofen, Allemagne (10945): visibility: 19.03.2019 11:00:00 - 25.03.2019 11:00:00 (CET)Leutkirch-Herlazhofen, Allemagne (10945): Ensoleillement: 19.03.2019 11:00:00 - 25.03.2019 11:00:00 (CET)Leutkirch-Herlazhofen, Allemagne (10945): Quantités de précipitations: 19.03.2019 11:00:00 - 25.03.2019 11:00:00 (CET)
Date & Time tt [°C] td [°C] tt 5cm [°C] tt -5cm [°C] tt -20cm [°C] tt -100cm [°C] ff [km/h] ff [knt] fx [km/h] fx [knt] dd ppp [hPa] vv [km] sd [min] rr [mm]
25.03.2019 11:00:00 6,8 -0,2 7,8 6,6 5,9 4,9 21 11 34 19 WNW 1021,6 25 0 0,0
25.03.2019 10:00:00 5,8 1,4 6,6 5,6 6,0 4,9 22 12 32 17 W 1022,1 14 0 0,0
25.03.2019 09:00:00 5,6 2,8 5,4 5,4 6,0 4,8 19 10 28 15 WSW 1022,0 8 0 0,0
25.03.2019 08:00:00 5,2 2,9 5,0 5,2 6,1 4,8 10 5 17 9 WSW 1022,0 6 0 0,0
25.03.2019 07:00:00 4,9 3,1 4,1 5,1 6,2 4,8 7 4 16 8 SW 1022,0 4,8 0 0,0
25.03.2019 06:00:00 5,1 3,2 4,4 5,2 6,3 4,8 8 5 12 6 WSW 1022,1 4,3 0 0,0
25.03.2019 05:00:00 5,2 3,2 4,7 5,2 6,4 4,8 8 4 13 7 W 1022,0 4,2 0 0,0
25.03.2019 04:00:00 4,9 3,6 3,5 5,2 6,6 4,8 2 1 9 5 S 1022,0 4,0 0 0,0
25.03.2019 03:00:00 4,9 3,5 3,9 5,2 6,7 4,8 4 2 6 3 SSW 1022,3 4,2 0 0,0
25.03.2019 02:00:00 4,3 3,4 3,8 5,2 7,0 4,8 5 3 7 4 S 1022,6 2,9 0 0,0
25.03.2019 01:00:00 4,0 2,8 2,2 5,2 7,2 4,8 5 3 8 4 SSE 1023,0 4,5 0 0,0
25.03.2019 00:00:00 2,9 1,8 0,3 5,6 7,5 4,8 3 2 7 4 SSW 1024,3 3,4 0 0,0
24.03.2019 23:00:00 4,0 2,8 -0,1 6,3 7,7 4,8 2 1 9 5 S 1024,7 3,8 0 0,0
24.03.2019 22:00:00 5,5 3,9 3,7 7,0 7,9 4,8 7 4 10 6 S 1024,7 5 0 0,0
24.03.2019 21:00:00 6,5 3,7 2,0 8,0 8,1 4,8 3 2 13 7 NNE 1024,3 6 0 0,0
24.03.2019 20:00:00 9,1 4,3 3,6 9,2 8,1 4,8 5 3 27 15 N 1022,8 8 0 0,0
24.03.2019 19:00:00 11,7 4,3 10,5 10,3 8,1 4,7 15 8 23 12 WNW 1021,3 13 0 0,0
24.03.2019 18:00:00 13,1 3,1 11,5 11,7 7,9 4,7 16 9 28 15 WSW 1020,2 19 0 0,0
24.03.2019 17:00:00 15,0 0,8 15,0 12,9 7,5 4,7 21 11 31 17 SW 1019,6 23 2 0,0
24.03.2019 16:00:00 15,6 1,5 17,4 13,7 7,1 4,7 17 9 27 15 SW 1019,6 27 0 0,0
24.03.2019 15:00:00 15,5 1,0 18,1 13,8 6,5 4,7 14 8 26 14 SW 1020,1 27 15 0,0
24.03.2019 14:00:00 14,7 3,7 18,1 13,3 5,9 4,7 16 9 23 13 SW 1020,7 16 49 0,0
24.03.2019 13:00:00 13,8 2,6 17,9 12,2 5,4 4,7 11 6 23 12 SW 1021,7 19 0 0,0
24.03.2019 12:00:00 13,6 2,6 16,9 10,3 5,0 4,7 10 5 22 12 SW 1022,2 26 0 0,0
24.03.2019 11:00:00 11,8 1,0 15,0 8,4 4,7 4,7 15 8 21 11 WSW 1023,2 62 0 0,0
24.03.2019 10:00:00 10,9 1,7 13,1 6,1 4,6 4,7 13 7 17 9 W 1023,5 32 0 0,0
24.03.2019 09:00:00 8,5 2,4 9,5 2,8 4,7 4,7 3 2 6 3 SSW 1024,5 22 0 0,0
24.03.2019 08:00:00 3,3 1,0 2,9 1,8 4,9 4,7 4 2 6 4 ESE 1026,3 9 5 0,0
24.03.2019 07:00:00 -0,4 -1,6 -2,4 2,0 5,1 4,7 4 2 8 5 S 1027,7 7 6 0,0
24.03.2019 06:00:00 -1,2 -1,9 -4,7 2,2 5,4 4,7 2 1 5 3 S 1027,9 8 0 0,0
24.03.2019 05:00:00 -1,5 -3,0 -4,6 2,4 5,6 4,7 0 0 6 3 N 1028,0 7 0 0,0
24.03.2019 04:00:00 -1,6 -2,8 -3,4 2,7 5,9 4,6 4 2 6 3 E 1027,9 8 0 0,0
24.03.2019 03:00:00 -0,1 -1,0 -3,2 3,0 6,1 4,6 3 2 5 3 E 1027,9 10 0 0,0
24.03.2019 02:00:00 -0,3 -1,8 -2,6 3,4 6,4 4,6 3 2 5 3 SSE 1028,6 9 0 0,0
24.03.2019 01:00:00 0,7 -0,5 -2,4 3,9 6,8 4,6 4 2 6 3 ESE 1028,4 10 0 0,0
24.03.2019 00:00:00 1,7 -0,3 -1,9 4,6 7,1 4,6 3 2 4 2 SSE 1028,8 12 0 0,0
23.03.2019 23:00:00 2,2 0,1 -1,3 5,4 7,4 4,6 3 2 5 3 ESE 1029,1 15 0 0,0
23.03.2019 22:00:00 2,7 0,3 -0,9 6,3 7,6 4,6 5 3 10 6 SSE 1029,3 15 0 0,0
23.03.2019 21:00:00 4,5 1,4 0,0 7,4 7,8 4,6 4 2 8 4 SE 1028,7 20 0 0,0
23.03.2019 20:00:00 5,8 2,0 1,3 8,9 7,9 4,6 4 2 6 3 S 1028,1 22 0 0,0
23.03.2019 19:00:00 7,9 2,2 4,1 10,7 7,8 4,6 4 2 5 3 S 1026,9 23 0 0,0
23.03.2019 18:00:00 15,3 2,0 12,6 12,2 7,5 4,6 4 2 10 6 WNW 1024,7 36 0 0,0
23.03.2019 17:00:00 16,4 -1,0 16,7 13,4 7,1 4,6 9 5 14 8 NW 1024,3 29 0 0,0
23.03.2019 16:00:00 16,7 -0,6 18,8 14,1 6,6 4,6 7 4 16 9 N 1024,4 28 0 0,0
23.03.2019 15:00:00 17,1 1,0 19,6 14,1 6,0 4,6 6 4 17 9 NW 1024,5 38 14 0,0
23.03.2019 14:00:00 16,0 -0,9 18,9 13,8 5,3 4,6 9 5 16 8 W 1025,4 51 49 0,0
23.03.2019 13:00:00 16,2 -1,6 18,2 12,5 4,7 4,6 6 3 12 7 SW 1025,8 40 0 0,0
23.03.2019 12:00:00 14,4 -2,0 17,7 10,4 4,2 4,6 6 3 14 7 NW 1026,8 35 0 0,0
23.03.2019 11:00:00 12,6 -0,9 15,6 7,6 3,9 4,6 9 5 14 8 SW 1027,9 50 0 0,0
23.03.2019 10:00:00 11,2 -0,7 12,8 4,6 3,9 4,6 11 6 15 8 WSW 1028,3 38 0 0,0
23.03.2019 09:00:00 8,4 1,0 8,7 1,5 4,1 4,6 3 2 5 3 E 1029,1 33 0 0,0
23.03.2019 08:00:00 2,9 -0,9 3,0 1,5 4,2 4,6 4 2 6 3 E 1030,8 33 10 0,0
23.03.2019 07:00:00 -0,2 -2,6 -3,4 1,6 4,4 4,6 3 2 6 3 SSE 1031,6 25 16 0,0
23.03.2019 06:00:00 -0,3 -2,6 -4,6 1,8 4,6 4,6 3 1 7 4 S 1031,5 30 0 0,0
23.03.2019 05:00:00 -1,0 -2,7 -3,9 2,0 4,8 4,6 5 3 9 5 S 1031,6 22 0 0,0
23.03.2019 04:00:00 -0,8 -2,1 -3,8 2,2 5,0 4,6 6 4 8 4 SSW 1031,5 17 0 0,0
23.03.2019 03:00:00 -0,6 -2,0 -4,3 2,5 5,3 4,6 0 0 4 2 N 1031,7 19 0 0,0
23.03.2019 02:00:00 -0,2 -1,9 -4,0 2,8 5,6 4,6 4 2 9 5 S 1031,7 24 0 0,0
23.03.2019 01:00:00 0,2 -2,0 -2,8 3,1 5,9 4,6 6 3 8 5 S 1031,6 28 0 0,0
23.03.2019 00:00:00 1,1 -2,0 -2,6 3,6 6,2 4,6 4 2 12 7 SSW 1031,5 35 0 0,0
22.03.2019 23:00:00 2,4 -1,6 -1,4 4,2 6,5 4,6 7 4 12 6 ESE 1031,1 42 0 0,0
22.03.2019 22:00:00 2,2 -0,8 -2,2 5,2 6,7 4,6 3 2 8 5 ESE 1031,2 38 0 0,0
22.03.2019 21:00:00 2,9 0,0 -1,6 6,5 6,9 4,6 3 2 6 4 S 1030,9 28 0 0,0
22.03.2019 20:00:00 5,0 1,6 1,2 8,0 6,9 4,5 3 2 10 5 S 1030,1 25 0 0,0
22.03.2019 19:00:00 8,2 1,3 4,2 9,7 6,8 4,6 3 2 5 3 SE 1029,1 33 0 0,0
22.03.2019 18:00:00 13,0 -0,1 10,5 11,3 6,5 4,6 4 2 13 7 WSW 1027,8 46 0 0,0
22.03.2019 17:00:00 15,0 -1,2 15,3 12,6 6,0 4,6 6 4 14 8 WSW 1027,4 35 0 0,0
22.03.2019 16:00:00 15,2 -1,3 17,4 13,5 5,4 4,6 8 4 11 6 W 1027,5 44 12 0,0
22.03.2019 15:00:00 15,1 0,1 17,3 13,0 4,8 4,6 4 2 13 7 N 1027,9 44 49 0,0
22.03.2019 14:00:00 13,6 -0,5 16,8 11,8 4,1 4,5 4 2 18 10 WSW 1028,5 33 0 0,0
22.03.2019 13:00:00 12,5 0,0 15,9 10,1 3,6 4,5 11 6 20 11 W 1029,0 33 24 0,0
22.03.2019 12:00:00 11,2 0,2 14,7 8,2 3,2 4,5 13 7 18 10 W 1029,5 46 60 0,0
22.03.2019 11:00:00 9,9 -0,4 12,8 5,2 3,0 4,5 11 6 17 9 WSW 1030,2 46 60 0,0
22.03.2019 10:00:00 8,6 -0,2 8,7 1,2 3,1 4,5 3 1 8 5 SW 1030,7 40 60 0,0
22.03.2019 09:00:00 4,6 -0,1 7,0 0,9 3,2 4,5 4 2 8 4 NNE 1032,2 39 60 0,0
22.03.2019 08:00:00 1,7 -1,8 1,2 0,9 3,4 4,5 5 3 8 5 SE 1032,8 27 60 0,0
22.03.2019 07:00:00 -3,0 -4,4 -4,1 1,0 3,5 4,5 0 0 5 3 N 1034,3 16 14 0,0
22.03.2019 06:00:00 -3,5 -4,3 -6,6 1,2 3,6 4,5 3 2 4 2 SSE 1034,2 16 0 0,0
22.03.2019 05:00:00 -3,3 -4,0 -5,4 1,3 3,8 4,5 3 2 6 3 SSE 1033,6 16 0 0,0
22.03.2019 04:00:00 -3,4 -4,7 -4,9 1,5 3,9 4,5 3 2 5 3 SE 1033,7 16 0 0,0
22.03.2019 03:00:00 -2,2 -3,5 -5,3 1,7 4,1 4,5 3 2 5 3 SSE 1033,3 18 0 0,0
22.03.2019 02:00:00 -2,7 -4,3 -5,1 1,9 4,3 4,5 0 0 5 3 N 1033,7 18 0 0,0
22.03.2019 01:00:00 -0,8 -2,9 -4,1 2,1 4,5 4,5 5 3 7 4 S 1033,3 26 0 0,0
22.03.2019 00:00:00 -0,4 -3,7 -4,7 2,3 4,7 4,5 0 0 9 5 N 1033,5 32 0 0,0
21.03.2019 23:00:00 -0,1 -3,2 -3,9 2,7 4,9 4,5 2 1 9 5 W 1033,7 30 0 0,0
21.03.2019 22:00:00 2,9 -2,0 -3,6 3,2 5,2 4,5 5 3 8 4 NNE 1032,9 37 0 0,0
21.03.2019 21:00:00 2,3 -2,5 -2,8 4,0 5,3 4,5 3 2 9 5 NE 1033,1 42 0 0,0
21.03.2019 20:00:00 5,8 -2,6 1,9 5,1 5,4 4,5 6 3 12 6 NNE 1032,0 47 0 0,0
21.03.2019 19:00:00 7,4 -2,0 3,0 6,5 5,4 4,5 9 5 22 12 NE 1031,2 49 24 0,0
21.03.2019 18:00:00 9,4 -1,5 8,5 7,8 5,2 4,5 13 7 26 14 NNE 1030,2 44 60 0,0
21.03.2019 17:00:00 10,7 -1,4 11,3 8,9 4,8 4,5 14 8 27 15 NNE 1029,6 38 60 0,0
21.03.2019 16:00:00 11,5 -3,6 13,3 9,5 4,4 4,5 18 10 28 15 ENE 1029,3 55 60 0,0
21.03.2019 15:00:00 11,6 -2,7 14,5 9,3 3,9 4,5 14 8 28 15 ENE 1029,5 58 60 0,0
21.03.2019 14:00:00 10,4 -3,0 13,4 8,5 3,4 4,5 21 11 33 18 NE 1030,5 36 60 0,0
21.03.2019 13:00:00 9,4 -3,7 13,0 7,3 3,0 4,5 22 12 36 19 NE 1031,1 47 60 0,0
21.03.2019 12:00:00 8,2 -3,0 11,7 5,2 2,8 4,5 21 11 34 19 NE 1031,8 59 60 0,0
21.03.2019 11:00:00 7,0 -3,6 10,0 2,1 2,9 4,5 19 10 35 19 NE 1032,4 64 60 0,0
21.03.2019 10:00:00 5,0 -3,1 6,5 0,8 2,9 4,5 17 9 31 17 E 1033,0 57 60 0,0
21.03.2019 09:00:00 2,9 -3,6 3,6 0,8 3,0 4,5 11 6 22 12 E 1033,5 44 60 0,0
21.03.2019 08:00:00 1,1 -3,9 2,3 0,8 3,2 4,5 8 5 15 8 NNE 1033,6 42 60 0,0
21.03.2019 07:00:00 -1,4 -4,9 -3,4 0,9 3,3 4,5 3 2 10 6 NNE 1034,3 41 14 0,0
21.03.2019 06:00:00 -3,0 -5,5 -6,4 1,0 3,4 4,5 3 1 5 3 NW 1035,1 30 0 0,0
21.03.2019 05:00:00 -1,8 -4,9 -5,6 1,2 3,5 4,5 2 1 9 5 N 1034,9 37 0 0,0
21.03.2019 04:00:00 -1,7 -5,0 -6,2 1,3 3,7 4,5 4 2 9 5 NW 1034,9 39 0 0,0
21.03.2019 03:00:00 -1,3 -5,1 -5,8 1,5 3,8 4,5 4 2 6 4 WNW 1035,0 40 0 0,0
21.03.2019 02:00:00 -1,9 -5,1 -5,9 1,7 4,0 4,5 5 3 10 5 NNW 1036,0 41 0 0,0
21.03.2019 01:00:00 -1,9 -5,2 -5,9 1,8 4,2 4,5 4 2 5 3 NW 1036,2 40 0 0,0
21.03.2019 00:00:00 -2,1 -4,2 -5,7 2,0 4,4 4,5 0 0 6 3 N 1036,7 30 0 0,0
20.03.2019 23:00:00 -0,9 -4,3 -4,8 2,3 4,6 4,5 4 2 12 6 NE 1036,9 33 0 0,0
20.03.2019 22:00:00 0,9 -4,1 -3,7 2,6 4,8 4,5 8 4 13 7 ENE 1036,2 44 0 0,0
20.03.2019 21:00:00 2,1 -4,1 -2,9 3,1 5,0 4,5 6 3 14 8 ENE 1035,6 48 0 0,0
20.03.2019 20:00:00 2,5 -3,2 -2,6 4,1 5,1 4,5 6 3 15 8 NE 1035,4 47 0 0,0
20.03.2019 19:00:00 4,2 -2,8 0,7 5,5 5,1 4,5 8 5 19 10 NNE 1034,7 44 24 0,0
20.03.2019 18:00:00 6,3 -3,8 5,8 6,9 5,0 4,5 13 7 22 12 NE 1033,1 46 60 0,0
20.03.2019 17:00:00 7,2 -3,4 8,3 8,1 4,7 4,5 13 7 26 14 NE 1032,6 58 60 0,0
20.03.2019 16:00:00 7,4 -3,7 10,2 8,7 4,3 4,5 16 9 34 18 ENE 1032,7 60 60 0,0
20.03.2019 15:00:00 7,3 -3,3 10,6 8,8 3,8 4,5 16 9 29 16 ENE 1032,9 75 60 0,0
20.03.2019 14:00:00 6,9 -3,8 11,1 8,2 3,3 4,5 17 9 27 15 NE 1033,6 74 60 0,0
20.03.2019 13:00:00 6,6 -3,9 11,0 7,0 3,0 4,5 16 9 30 16 NE 1034,0 59 60 0,0
20.03.2019 12:00:00 5,3 -4,6 9,9 4,7 2,8 4,5 12 7 24 13 NE 1034,4 50 58 0,0
20.03.2019 11:00:00 5,0 -2,8 8,4 1,3 2,8 4,5 13 7 22 12 NE 1034,4 32 60 0,0
20.03.2019 10:00:00 4,0 -3,3 4,5 0,8 2,9 4,5 10 5 16 9 ENE 1034,4 45 60 0,0
20.03.2019 09:00:00 0,6 -2,5 1,9 0,8 3,0 4,5 6 3 8 4 NW 1035,6 30 60 0,0
20.03.2019 08:00:00 -1,3 -3,8 -1,1 0,9 3,1 4,5 4 2 5 3 SE 1035,7 28 60 0,0
20.03.2019 07:00:00 -5,0 -6,4 -6,5 1,0 3,2 4,5 0 0 3 2 N 1036,4 9 10 0,0
20.03.2019 06:00:00 -5,2 -5,8 -7,6 1,1 3,3 4,5 0 0 3 1 N 1035,7 14 0 0,0
20.03.2019 05:00:00 -5,1 -5,8 -7,7 1,2 3,5 4,5 3 1 4 2 NNE 1035,3 9 0 0,0
20.03.2019 04:00:00 -5,0 -5,9 -7,5 1,3 3,6 4,5 3 1 4 2 S 1035,2 17 0 0,0
20.03.2019 03:00:00 -4,3 -5,0 -6,1 1,4 3,7 4,5 2 1 4 2 SE 1035,2 15 0 0,0
20.03.2019 02:00:00 -4,2 -4,9 -6,8 1,6 3,9 4,5 2 1 4 2 SSE 1035,3 16 0 0,0
20.03.2019 01:00:00 -3,5 -4,3 -6,0 1,7 4,1 4,5 2 1 4 2 S 1034,8 16 0 0,0
20.03.2019 00:00:00 -3,2 -3,9 -5,2 1,9 4,3 4,5 3 2 4 2 SE 1034,5 17 0 0,0
19.03.2019 23:00:00 -2,6 -3,5 -5,6 2,1 4,5 4,5 0 0 5 3 N 1034,0 22 0 0,0
19.03.2019 22:00:00 -1,9 -2,6 -4,5 2,4 4,7 4,5 3 2 5 3 ESE 1033,3 27 0 0,0
19.03.2019 21:00:00 -1,0 -2,2 -3,8 2,9 4,9 4,5 3 1 5 3 ESE 1032,8 38 0 0,0
19.03.2019 20:00:00 -0,8 -2,8 -4,0 3,8 5,1 4,5 3 2 8 4 SE 1032,2 34 0 0,0
19.03.2019 19:00:00 0,8 -2,6 -2,6 5,2 5,1 4,5 4 2 9 5 E 1030,9 50 0 0,0
19.03.2019 18:00:00 4,5 -3,7 3,2 6,4 5,0 4,5 8 4 10 6 NE 1029,1 75 30 0,0
19.03.2019 17:00:00 5,1 -3,6 5,8 6,8 4,9 4,5 4 2 15 8 NE 1028,3 75 2 0,0
19.03.2019 16:00:00 4,6 -2,0 5,6 7,5 4,6 4,5 10 6 18 10 N 1028,3 57 0 0,0
19.03.2019 15:00:00 4,6 -1,7 6,0 8,7 4,2 4,5 15 8 21 11 NNW 1028,0 75 11 0,0
19.03.2019 14:00:00 6,7 -4,9 12,1 7,8 3,8 4,5 5 3 18 10 E 1027,2 56 20 0,0
19.03.2019 13:00:00 4,2 -1,4 5,7 8,8 3,3 4,5 14 8 22 12 NNW 1028,0 50 37 0,0
19.03.2019 12:00:00 5,2 -1,6 9,8 6,4 3,0 4,5 9 5 15 8 E 1027,5 49 45 0,0
19.03.2019 11:00:00 3,2 -0,8 6,4 3,8 2,9 4,5 9 5 12 7 ENE 1028,0 36 24 0,0

tt = Température de l'air
td = dewpoint
tt 5cm = Température de l'air 5cm
tt -5cm = Température de l'air -5cm
tt -20cm = Température de l'air -20cm
tt -100cm = Température de l'air -100cm
ff = Vitesse du vent
fx = gusts
dd = Direction du vent
ppp = reduced air pressure
vv = visibility
sd = Ensoleillement
rr = Quantités de précipitations

stations d'obs. à proximité